User: anonymous   Login
Location: La Comballaz
(46.3780°N, 7.0817°E)
Time: 15:14:42
(UTC+00:00)
Language:

Cosmos 1726 - Orbit

View from above orbital plane
View from above orbital plane
View from above satellite
View from above satellite

Ground track
Ground track

The orbit data is extracted from the following two-line orbital elements,

1 16495U 86006A   21163.18189860  .00001103  00000-0  41690-4 0  9998
2 16495  82.4735  48.5209 0013771 120.0785 240.1820 15.25798697938136
Epoch (UTC): 12 June 2021 04:21:56
Eccentricity: 0.0013771
inclination: 82.4735°
perigee height: 479 km
apogee height: 498 km
right ascension of ascending node: 48.5209°
argument of perigee: 120.0785°
revolutions per day: 15.25798697
mean anomaly at epoch: 240.1820°
orbit number at epoch: 93813

The dashed part of the orbit path shows where the satellite is in the earth's shadow,  

DLR